EW4115 Weather Reports


Display with metric or nautical units.
time (UTC)temp
F
wind
direction
speed
MPH
gust
MPH
rain 1hr
in
rain 24hr
in
rain mn
in
humidity
%
barometer
mb
20260506044530 59 120 0.0 0.0 0.00 0.00 0.00 78 1015.0
20260506043025 57 120 0.0 0.0 0.00 0.00 0.00 82 1015.0
20260506041522 56 120 0.0 0.0 0.00 0.00 0.00 81 1014.9
20260506040023 56 132 0.0 0.0 0.00 0.00 0.00 81 1014.8
20260506034520 56 132 0.0 0.0 0.00 0.00 0.00 80 1014.7
20260506033015 56 132 0.0 0.0 0.00 0.00 0.00 80 1014.5
20260506031514 56 133 0.0 0.0 0.00 0.00 0.00 80 1014.5
20260506030026 56 133 0.0 0.0 0.00 0.00 0.00 79 1014.4
20260506024518 56 133 0.0 1.0 0.00 0.00 0.00 79 1014.4
20260506023012 57 133 0.0 0.0 0.00 0.00 0.00 78 1014.4
20260506021507 57 133 0.0 0.0 0.00 0.00 0.00 78 1014.5
20260506020006 57 133 0.0 0.0 0.00 0.00 0.00 77 1014.5
20260506014505 57 133 0.0 0.0 0.00 0.00 0.00 77 1014.7
20260506013008 57 133 0.0 0.0 0.00 0.00 0.00 77 1014.7
20260506011504 57 133 0.0 0.0 0.00 0.00 0.00 76 1014.6
20260506010002 58 133 0.0 0.0 0.00 0.00 0.00 77 1014.7
20260506004503 58 133 0.0 0.0 0.00 0.00 0.00 76 1014.9
20260506003001 58 133 0.0 0.0 0.00 0.00 0.00 76 1014.8
20260506001600 58 133 0.0 0.0 0.00 0.00 0.00 75 1014.8
20260506000101 58 133 0.0 0.0 0.00 0.00 0.00 75 1014.8
20260505234558 58 133 0.0 0.0 0.00 0.00 0.00 76 1014.9
20260505233054 59 133 0.0 0.0 0.00 0.00 0.00 74 1015.0
20260505231553 59 133 0.0 0.0 0.00 0.00 0.00 74 1015.1
20260505224550 59 133 0.0 0.0 0.00 0.00 0.00 73 1015.3
20260505223056 60 133 0.0 0.0 0.00 0.00 0.00 72 1015.3
20260505221547 60 133 0.0 0.0 0.00 0.00 0.00 71 1015.3
20260505220046 60 133 0.0 0.0 0.00 0.00 0.00 71 1015.3
20260505214545 60 133 0.0 0.0 0.00 0.00 0.00 70 1015.3
20260505213053 61 133 0.0 0.0 0.00 0.00 0.00 69 1015.3
20260505211540 61 133 0.0 0.0 0.00 0.00 0.00 68 1015.4
20260505210038 62 133 0.0 0.0 0.00 0.00 0.00 67 1015.5
20260505204539 62 133 0.0 0.0 0.00 0.00 0.00 66 1015.4
20260505203045 63 133 0.0 0.0 0.00 0.00 0.00 65 1015.5
20260505201538 63 133 0.0 0.0 0.00 0.00 0.00 65 1015.5
20260505200037 64 133 0.0 1.0 0.00 0.00 0.00 64 1015.5
20260505194535 64 133 0.0 0.0 0.00 0.00 0.00 62 1015.5
20260505193035 65 133 0.0 0.0 0.00 0.00 0.00 62 1015.5
20260505191534 66 133 0.0 0.0 0.00 0.00 0.00 60 1015.4
20260505190033 66 133 0.0 0.0 0.00 0.00 0.00 59 1015.3
20260505184533 67 133 0.0 0.0 0.00 0.00 0.00 57 1015.2
20260505183033 67 133 0.0 0.0 0.00 0.00 0.00 56 1015.1
20260505181645 67 132 0.0 2.0 0.00 0.00 0.00 54 1014.9
20260505180031 68 123 0.0 1.0 0.00 0.00 0.00 54 1014.8
20260505174531 69 123 0.0 1.0 0.00 0.00 0.00 54 1014.7
20260505173041 70 123 0.0 1.0 0.00 0.00 0.00 53 1014.5
20260505171530 70 123 0.0 1.0 0.00 0.00 0.00 52 1014.5
20260505170033 70 121 1.0 6.0 0.00 0.00 0.00 53 1014.6
20260505164629 71 104 2.0 4.0 0.00 0.00 0.00 52 1014.6
20260505163028 72 69 1.0 4.0 0.00 0.00 0.00 51 1014.8
20260505161528 74 108 2.0 6.0 0.00 0.00 0.00 50 1014.6
20260505153035 79 237 0.0 3.0 0.00 0.00 0.00 30 1014.4
20260505151526 79 248 2.0 5.0 0.00 0.00 0.00 31 1014.4
20260505124511 80 232 1.0 7.0 0.00 0.00 0.00 29 1015.2
20260505123010 79 197 1.0 9.0 0.00 0.00 0.00 30 1015.3
20260505121510 79 107 2.0 7.0 0.00 0.00 0.00 30 1015.4
20260505120007 79 237 1.0 8.0 0.00 0.00 0.00 32 1015.6
20260505114506 79 140 3.0 11.0 0.00 0.00 0.00 32 1015.7
20260505113005 79 137 4.0 13.0 0.00 0.00 0.00 34 1015.7
20260505111504 79 241 3.0 8.0 0.00 0.00 0.00 36 1015.7
20260505101602 78 143 2.0 7.0 0.00 0.00 0.00 38 1016.0
20260505100055 77 70 2.0 7.0 0.00 0.00 0.00 37 1016.0
20260505094553 77 220 1.0 5.0 0.00 0.00 0.00 40 1016.1
20260505093047 77 256 3.0 11.0 0.00 0.00 0.00 39 1016.3
20260505091554 76 183 0.0 8.0 0.00 0.00 0.00 37 1016.3
20260505090052 75 227 2.0 11.0 0.00 0.00 0.00 36 1016.4
20260505084538 75 191 0.0 8.0 0.00 0.00 0.00 36 1016.5
20260505083041 74 229 2.0 5.0 0.00 0.00 0.00 36 1016.6
20260505081548 73 262 2.0 8.0 0.00 0.00 0.00 38 1016.7
20260505080037 72 254 2.0 8.0 0.00 0.00 0.00 38 1016.7
20260505074522 72 231 2.0 7.0 0.00 0.00 0.00 37 1016.7
20260505073018 71 245 1.0 6.0 0.00 0.00 0.00 38 1016.8
20260505071523 70 245 0.0 5.0 0.00 0.00 0.00 41 1016.8
20260505070010 69 270 0.0 3.0 0.00 0.00 0.00 44 1016.8
20260505064504 68 185 0.0 4.0 0.00 0.00 0.00 45 1016.8
20260505063101 67 202 1.0 7.0 0.00 0.00 0.00 47 1016.8
20260505061624 65 237 0.0 1.0 0.00 0.00 0.00 54 1016.6
20260505060053 64 237 0.0 2.0 0.00 0.00 0.00 60 1016.6
20260505054559 63 237 0.0 2.0 0.00 0.00 0.00 64 1016.6
20260505053044 61 237 0.0 2.0 0.00 0.00 0.00 69 1016.7
20260505051538 59 237 0.0 1.0 0.00 0.00 0.00 74 1016.6